FW3681 Weather Reports


Display with metric or nautical units.
time (UTC)temp
F
wind
direction
speed
MPH
gust
MPH
rain 1hr
in
rain 24hr
in
rain mn
in
humidity
%
barometer
mb
20260504060200 53 197 0.0 2.0 0.00 0.00 0.00 77 1018.3
20260504050702 54 250 2.0 3.0 0.00 0.00 0.00 75 1018.7
20260504050505 54 250 2.0 3.0 0.00 0.00 0.00 75 1018.8
20260504050401 54 250 2.0 3.0 0.00 0.00 0.00 75 1018.8
20260504050302 54 250 2.0 3.0 0.00 0.00 0.00 75 1018.8
20260504050009 54 250 2.0 3.0 0.00 0.00 0.00 75 1018.7
20260504045902 54 237 0.0 3.0 0.00 0.00 0.00 75 1018.7
20260504045702 54 258 2.0 3.0 0.00 0.00 0.00 75 1018.6
20260504045601 54 244 2.0 3.0 0.00 0.00 0.00 75 1018.6
20260504045506 54 241 2.0 2.0 0.00 0.00 0.00 75 1018.6
20260504045404 54 235 2.0 2.0 0.00 0.00 0.00 74 1018.5
20260504045102 55 230 0.0 3.0 0.00 0.00 0.00 74 1018.7
20260504045005 55 229 0.0 3.0 0.00 0.00 0.00 74 1018.7
20260504044903 55 221 1.0 3.0 0.00 0.00 0.00 74 1018.7
20260504044803 55 225 0.0 3.0 0.00 0.00 0.00 74 1018.6
20260504044703 55 233 0.0 3.0 0.00 0.00 0.00 74 1018.7
20260504044603 55 251 0.0 3.0 0.00 0.00 0.00 74 1018.7
20260504044506 55 250 2.0 3.0 0.00 0.00 0.00 74 1018.7
20260504044402 55 267 0.0 3.0 0.00 0.00 0.00 74 1018.6
20260504044302 55 265 0.0 3.0 0.00 0.00 0.00 74 1018.6
20260504044203 55 260 2.0 3.0 0.00 0.00 0.00 74 1018.5
20260504044102 55 257 2.0 3.0 0.00 0.00 0.00 74 1018.5
20260504044005 55 255 1.0 3.0 0.00 0.00 0.00 74 1018.5
20260504043903 55 285 0.0 3.0 0.00 0.00 0.00 74 1018.4
20260504043803 55 269 0.0 3.0 0.00 0.00 0.00 74 1018.5
20260504043603 55 269 2.0 3.0 0.00 0.00 0.00 74 1018.4
20260504043506 55 267 0.0 3.0 0.00 0.00 0.00 74 1018.4
20260504043402 55 260 2.0 3.0 0.00 0.00 0.00 73 1018.4
20260504043302 55 257 3.0 3.0 0.00 0.00 0.00 73 1018.3
20260504043203 55 228 2.0 3.0 0.00 0.00 0.00 73 1018.4
20260504043102 55 240 2.0 3.0 0.00 0.00 0.00 72 1018.3
20260504043008 55 259 2.0 4.0 0.00 0.00 0.00 72 1018.4
20260504042903 55 248 2.0 4.0 0.00 0.00 0.00 72 1018.3
20260504042803 55 240 0.0 4.0 0.00 0.00 0.00 72 1018.4
20260504042702 55 257 2.0 4.0 0.00 0.00 0.00 72 1018.4
20260504042604 55 258 1.0 4.0 0.00 0.00 0.00 72 1018.5
20260504042506 55 278 2.0 4.0 0.00 0.00 0.00 72 1018.5
20260504042403 55 248 2.0 4.0 0.00 0.00 0.00 72 1018.4
20260504042304 55 264 1.0 4.0 0.00 0.00 0.00 72 1018.4
20260504042203 55 262 3.0 4.0 0.00 0.00 0.00 71 1018.4
20260504042102 55 274 3.0 3.0 0.00 0.00 0.00 71 1018.4
20260504042006 55 264 2.0 3.0 0.00 0.00 0.00 71 1018.4
20260504041902 55 274 2.0 3.0 0.00 0.00 0.00 71 1018.3
20260504041803 55 267 1.0 3.0 0.00 0.00 0.00 71 1018.3
20260504041703 55 251 2.0 3.0 0.00 0.00 0.00 71 1018.4
20260504041602 55 267 2.0 3.0 0.00 0.00 0.00 71 1018.3
20260504041505 55 250 2.0 3.0 0.00 0.00 0.00 70 1018.4
20260504041301 55 274 2.0 3.0 0.00 0.00 0.00 70 1018.3
20260504041203 56 245 2.0 3.0 0.00 0.00 0.00 70 1018.3
20260504041102 56 240 0.0 3.0 0.00 0.00 0.00 70 1018.3
20260504041006 56 234 0.0 3.0 0.00 0.00 0.00 70 1018.3
20260504040903 56 237 2.0 3.0 0.00 0.00 0.00 70 1018.2
20260504040803 56 231 0.0 3.0 0.00 0.00 0.00 69 1018.2
20260504040703 56 243 2.0 3.0 0.00 0.00 0.00 69 1018.2
20260504040603 56 229 0.0 3.0 0.00 0.00 0.00 69 1018.3
20260504040505 56 234 2.0 3.0 0.00 0.00 0.00 69 1018.3
20260504040202 56 269 3.0 3.0 0.00 0.00 0.00 69 1018.2
20260504040103 56 243 3.0 3.0 0.00 0.00 0.00 68 1018.3
20260504040007 56 246 3.0 3.0 0.00 0.00 0.00 69 1018.3
20260504035904 56 246 2.0 3.0 0.00 0.00 0.00 69 1018.3
20260504035802 56 250 0.0 2.0 0.00 0.00 0.00 69 1018.2
20260504035702 56 253 2.0 2.0 0.00 0.00 0.00 69 1018.3
20260504035602 56 262 1.0 3.0 0.00 0.00 0.00 69 1018.3
20260504035505 56 242 0.0 3.0 0.00 0.00 0.00 69 1018.3
20260504035402 56 233 0.0 3.0 0.00 0.00 0.00 69 1018.3
20260504035304 56 239 1.0 3.0 0.00 0.00 0.00 69 1018.3
20260504035203 56 232 0.0 3.0 0.00 0.00 0.00 70 1018.3
20260504035102 56 232 1.0 3.0 0.00 0.00 0.00 70 1018.3
20260504035006 56 250 1.0 3.0 0.00 0.00 0.00 70 1018.3
20260504034902 56 246 1.0 3.0 0.00 0.00 0.00 70 1018.3
20260504034703 57 235 2.0 3.0 0.00 0.00 0.00 69 1018.3
20260504034603 57 232 2.0 3.0 0.00 0.00 0.00 69 1018.4
20260504034402 57 250 1.0 3.0 0.00 0.00 0.00 69 1018.4
20260504034303 57 259 2.0 3.0 0.00 0.00 0.00 69 1018.4
20260504034202 57 262 2.0 3.0 0.00 0.00 0.00 69 1018.4
20260504034102 57 259 2.0 3.0 0.00 0.00 0.00 68 1018.3
20260504034006 57 269 1.0 3.0 0.00 0.00 0.00 68 1018.3
20260504033902 57 263 1.0 3.0 0.00 0.00 0.00 68 1018.3
20260504033802 57 255 0.0 3.0 0.00 0.00 0.00 69 1018.3
20260504033703 57 259 1.0 3.0 0.00 0.00 0.00 69 1018.2
20260504033602 57 283 0.0 3.0 0.00 0.00 0.00 69 1018.3
20260504033505 57 253 2.0 3.0 0.00 0.00 0.00 69 1018.2
20260504033402 57 252 3.0 3.0 0.00 0.00 0.00 69 1018.3
20260504033303 57 264 2.0 3.0 0.00 0.00 0.00 68 1018.3
20260504033202 57 233 2.0 3.0 0.00 0.00 0.00 68 1018.2
20260504033104 57 250 3.0 3.0 0.00 0.00 0.00 68 1018.3
20260504033006 57 248 3.0 3.0 0.00 0.00 0.00 67 1018.3
20260504032702 57 245 2.0 3.0 0.00 0.00 0.00 67 1018.3
20260504032602 57 245 0.0 3.0 0.00 0.00 0.00 67 1018.3
20260504032505 57 255 3.0 3.0 0.00 0.00 0.00 67 1018.3
20260504032403 57 257 2.0 3.0 0.00 0.00 0.00 66 1018.2
20260504032304 57 242 3.0 3.0 0.00 0.00 0.00 66 1018.3
20260504032203 57 250 2.0 3.0 0.00 0.00 0.00 66 1018.3
20260504032103 57 250 2.0 3.0 0.00 0.00 0.00 66 1018.3
20260504032005 57 245 3.0 3.0 0.00 0.00 0.00 65 1018.3
20260504031902 57 233 2.0 3.0 0.00 0.00 0.00 65 1018.4
20260504031802 57 236 3.0 3.0 0.00 0.00 0.00 65 1018.3
20260504031703 57 243 2.0 3.0 0.00 0.00 0.00 65 1018.3
20260504031602 58 230 1.0 3.0 0.00 0.00 0.00 65 1018.3
20260504031506 58 230 1.0 3.0 0.00 0.00 0.00 65 1018.3
20260504031403 58 225 2.0 3.0 0.00 0.00 0.00 65 1018.3
20260504031304 58 238 0.0 3.0 0.00 0.00 0.00 65 1018.3
20260504031204 58 237 2.0 3.0 0.00 0.00 0.00 65 1018.2
20260504031103 58 242 2.0 3.0 0.00 0.00 0.00 65 1018.3
20260504031007 58 258 2.0 3.0 0.00 0.00 0.00 65 1018.3
20260504030903 58 246 2.0 3.0 0.00 0.00 0.00 65 1018.3
20260504030803 58 245 2.0 3.0 0.00 0.00 0.00 65 1018.3
20260504030702 58 251 2.0 3.0 0.00 0.00 0.00 65 1018.2
20260504030603 58 255 3.0 3.0 0.00 0.00 0.00 65 1018.3
20260504030505 58 255 3.0 3.0 0.00 0.00 0.00 65 1018.3
20260504030403 58 255 3.0 3.0 0.00 0.00 0.00 64 1018.2
20260504030303 58 248 2.0 3.0 0.00 0.00 0.00 64 1018.2
20260504030202 58 236 0.0 3.0 0.00 0.00 0.00 64 1018.3
20260504030006 58 236 2.0 3.0 0.00 0.00 0.00 63 1018.2
20260504025901 58 255 2.0 3.0 0.00 0.00 0.00 64 1018.3
20260504025802 58 245 2.0 3.0 0.00 0.00 0.00 63 1018.3
20260504025702 58 242 2.0 3.0 0.00 0.00 0.00 63 1018.3
20260504025602 58 248 2.0 3.0 0.00 0.00 0.00 63 1018.3
20260504025505 58 241 2.0 3.0 0.00 0.00 0.00 63 1018.3
20260504025402 58 230 0.0 3.0 0.00 0.00 0.00 63 1018.3
20260504025103 58 264 2.0 4.0 0.00 0.00 0.00 63 1018.3
20260504025005 58 248 2.0 4.0 0.00 0.00 0.00 63 1018.3
20260504024901 58 242 2.0 4.0 0.00 0.00 0.00 63 1018.4
20260504024801 58 245 2.0 4.0 0.00 0.00 0.00 63 1018.4
20260504024702 58 237 2.0 4.0 0.00 0.00 0.00 62 1018.4
20260504024505 58 272 2.0 4.0 0.00 0.00 0.00 63 1018.3
20260504024402 59 250 3.0 4.0 0.00 0.00 0.00 63 1018.3
20260504024301 58 258 4.0 4.0 0.00 0.00 0.00 63 1018.3
20260504024201 58 252 3.0 4.0 0.00 0.00 0.00 63 1018.3
20260504024101 59 251 2.0 4.0 0.00 0.00 0.00 62 1018.3
20260504024006 59 250 3.0 3.0 0.00 0.00 0.00 62 1018.3
20260504023902 59 245 2.0 3.0 0.00 0.00 0.00 61 1018.2
20260504023802 59 239 0.0 3.0 0.00 0.00 0.00 61 1018.3
20260504023505 59 226 1.0 3.0 0.00 0.00 0.00 61 1018.3
20260504023401 59 220 2.0 3.0 0.00 0.00 0.00 61 1018.2
20260504023302 59 224 0.0 3.0 0.00 0.00 0.00 61 1018.2
20260504023202 59 216 0.0 3.0 0.00 0.00 0.00 60 1018.3
20260504023102 59 221 2.0 3.0 0.00 0.00 0.00 60 1018.2
20260504023005 59 239 2.0 3.0 0.00 0.00 0.00 60 1018.2
20260504022901 59 239 2.0 3.0 0.00 0.00 0.00 60 1018.2
20260504022801 59 231 2.0 3.0 0.00 0.00 0.00 59 1018.3
20260504022701 59 225 2.0 3.0 0.00 0.00 0.00 60 1018.2
20260504022505 60 253 2.0 3.0 0.00 0.00 0.00 60 1018.3
20260504022402 60 248 1.0 3.0 0.00 0.00 0.00 60 1018.2
20260504022301 60 243 0.0 3.0 0.00 0.00 0.00 60 1018.3
20260504022201 60 242 2.0 3.0 0.00 0.00 0.00 60 1018.3
20260504022101 60 246 3.0 3.0 0.00 0.00 0.00 60 1018.2
20260504022005 60 249 3.0 3.0 0.00 0.00 0.00 59 1018.2
20260504021903 60 240 2.0 3.0 0.00 0.00 0.00 59 1018.2
20260504021801 60 242 2.0 3.0 0.00 0.00 0.00 59 1018.2
20260504021701 60 238 2.0 3.0 0.00 0.00 0.00 59 1018.2
20260504021601 60 248 2.0 3.0 0.00 0.00 0.00 60 1018.2
20260504021505 60 239 2.0 3.0 0.00 0.00 0.00 60 1018.2
20260504021402 60 242 2.0 3.0 0.00 0.00 0.00 60 1018.2
20260504021301 60 242 3.0 3.0 0.00 0.00 0.00 60 1018.2
20260504021201 60 250 3.0 3.0 0.00 0.00 0.00 59 1018.2
20260504021101 60 248 2.0 4.0 0.00 0.00 0.00 59 1018.1
20260504021005 60 242 1.0 4.0 0.00 0.00 0.00 59 1018.1
20260504020901 60 239 2.0 4.0 0.00 0.00 0.00 59 1018.1
20260504020801 60 231 1.0 4.0 0.00 0.00 0.00 59 1018.1
20260504020702 60 236 2.0 4.0 0.00 0.00 0.00 59 1018.1
20260504020602 60 234 2.0 4.0 0.00 0.00 0.00 59 1018.1
20260504020505 60 242 2.0 4.0 0.00 0.00 0.00 59 1018.2
20260504020401 60 255 3.0 4.0 0.00 0.00 0.00 58 1018.1
20260504020301 61 253 3.0 4.0 0.00 0.00 0.00 57 1018.2
20260504020201 61 264 3.0 4.0 0.00 0.00 0.00 57 1018.1
20260504020005 61 249 3.0 4.0 0.00 0.00 0.00 56 1018.1
20260504015902 61 242 3.0 4.0 0.00 0.00 0.00 56 1018.1
20260504015704 61 248 3.0 3.0 0.00 0.00 0.00 55 1018.0
20260504015505 61 248 3.0 3.0 0.00 0.00 0.00 55 1017.9
20260504015304 61 246 3.0 3.0 0.00 0.00 0.00 53 1017.9
20260504015202 61 251 3.0 3.0 0.00 0.00 0.00 54 1017.9
20260504015103 61 244 3.0 3.0 0.00 0.00 0.00 54 1017.9
20260504015007 61 231 2.0 3.0 0.00 0.00 0.00 55 1017.9
20260504014903 62 250 2.0 3.0 0.00 0.00 0.00 55 1017.8
20260504014802 62 246 2.0 3.0 0.00 0.00 0.00 54 1017.8
20260504014703 62 265 2.0 3.0 0.00 0.00 0.00 53 1017.9
20260504014602 62 234 2.0 3.0 0.00 0.00 0.00 53 1017.8
20260504014506 62 253 1.0 3.0 0.00 0.00 0.00 53 1017.8
20260504014302 62 243 2.0 3.0 0.00 0.00 0.00 52 1017.8
20260504014202 62 242 2.0 3.0 0.00 0.00 0.00 52 1017.8
20260504014102 62 257 2.0 3.0 0.00 0.00 0.00 52 1017.8
20260504014011 62 248 2.0 3.0 0.00 0.00 0.00 52 1017.8
20260504013703 62 251 2.0 3.0 0.00 0.00 0.00 52 1017.7
20260504013603 62 230 1.0 4.0 0.00 0.00 0.00 52 1017.7
20260504013505 62 228 2.0 4.0 0.00 0.00 0.00 53 1017.7
20260504013202 62 243 0.0 4.0 0.00 0.00 0.00 51 1017.6
20260504013104 62 244 2.0 4.0 0.00 0.00 0.00 51 1017.6
20260504012903 62 249 2.0 4.0 0.00 0.00 0.00 51 1017.6
20260504012802 62 248 2.0 4.0 0.00 0.00 0.00 52 1017.6
20260504012703 62 257 3.0 3.0 0.00 0.00 0.00 52 1017.6
20260504012603 62 257 2.0 3.0 0.00 0.00 0.00 51 1017.5
20260504012506 62 251 3.0 3.0 0.00 0.00 0.00 52 1017.5
20260504012402 63 244 2.0 3.0 0.00 0.00 0.00 50 1017.5
20260504012203 63 234 2.0 3.0 0.00 0.00 0.00 49 1017.4
20260504012104 63 240 3.0 3.0 0.00 0.00 0.00 48 1017.4
20260504011804 63 232 2.0 3.0 0.00 0.00 0.00 49 1017.4
20260504011702 63 238 2.0 3.0 0.00 0.00 0.00 48 1017.4
20260504011603 63 243 2.0 3.0 0.00 0.00 0.00 47 1017.4
20260504011402 63 230 2.0 3.0 0.00 0.00 0.00 47 1017.3
20260504011302 63 228 2.0 3.0 0.00 0.00 0.00 47 1017.3
20260504011202 64 222 2.0 3.0 0.00 0.00 0.00 48 1017.3
20260504011006 64 244 2.0 3.0 0.00 0.00 0.00 48 1017.3
20260504010902 64 246 3.0 3.0 0.00 0.00 0.00 47 1017.1
20260504010802 64 244 2.0 3.0 0.00 0.00 0.00 47 1017.3
20260504010702 64 245 2.0 3.0 0.00 0.00 0.00 47 1017.2
20260504010505 64 230 2.0 3.0 0.00 0.00 0.00 46 1017.2
20260504010402 64 230 2.0 3.0 0.00 0.00 0.00 45 1017.3
20260504010302 64 243 2.0 3.0 0.00 0.00 0.00 45 1017.3
20260504010201 64 240 2.0 3.0 0.00 0.00 0.00 45 1017.2
20260504010007 64 215 1.0 3.0 0.00 0.00 0.00 45 1017.2
20260504005903 64 220 2.0 3.0 0.00 0.00 0.00 45 1017.2
20260504005804 64 237 1.0 3.0 0.00 0.00 0.00 46 1017.2
20260504005702 65 241 2.0 2.0 0.00 0.00 0.00 47 1017.2
20260504005603 65 229 2.0 2.0 0.00 0.00 0.00 46 1017.2
20260504005304 65 226 1.0 3.0 0.00 0.00 0.00 45 1017.1
20260504005203 65 220 2.0 3.0 0.00 0.00 0.00 45 1017.1
20260504005005 65 224 1.0 3.0 0.00 0.00 0.00 44 1017.1
20260504004703 65 217 0.0 3.0 0.00 0.00 0.00 44 1017.1
20260504004603 65 222 2.0 2.0 0.00 0.00 0.00 44 1017.1
20260504004506 66 221 1.0 2.0 0.00 0.00 0.00 44 1017.1
20260504004402 66 217 0.0 2.0 0.00 0.00 0.00 44 1017.0
20260504004303 66 195 0.0 2.0 0.00 0.00 0.00 43 1017.0
20260504004103 66 223 1.0 2.0 0.00 0.00 0.00 44 1017.0
20260504003903 66 221 0.0 2.0 0.00 0.00 0.00 44 1017.1
20260504003802 66 207 0.0 2.0 0.00 0.00 0.00 44 1017.0
20260504003702 66 195 1.0 2.0 0.00 0.00 0.00 44 1017.1
20260504003603 66 214 2.0 2.0 0.00 0.00 0.00 43 1017.0
20260504003303 67 202 0.0 2.0 0.00 0.00 0.00 42 1016.9
20260504003202 67 219 1.0 2.0 0.00 0.00 0.00 42 1016.9
20260504003103 67 218 0.0 2.0 0.00 0.00 0.00 42 1016.9
20260504003006 67 227 0.0 2.0 0.00 0.00 0.00 42 1016.9
20260504002902 67 227 0.0 2.0 0.00 0.00 0.00 42 1016.9
20260504002802 67 232 0.0 2.0 0.00 0.00 0.00 42 1016.9
20260504002702 67 231 0.0 2.0 0.00 0.00 0.00 41 1017.0
20260504002603 67 231 1.0 2.0 0.00 0.00 0.00 41 1016.9
20260504002303 68 236 0.0 2.0 0.00 0.00 0.00 40 1016.8
20260504002202 68 241 0.0 2.0 0.00 0.00 0.00 39 1016.9
20260504001904 68 229 0.0 2.0 0.00 0.00 0.00 41 1016.9
20260504001803 68 229 0.0 2.0 0.00 0.00 0.00 40 1016.9
20260504001703 68 229 0.0 2.0 0.00 0.00 0.00 39 1016.8
20260504001506 68 230 0.0 2.0 0.00 0.00 0.00 40 1016.8
20260504001302 68 231 0.0 2.0 0.00 0.00 0.00 40 1016.8
20260504001102 69 213 0.0 1.0 0.00 0.00 0.00 40 1016.7
20260504001005 69 213 0.0 1.0 0.00 0.00 0.00 39 1016.7
20260504000904 69 238 0.0 1.0 0.00 0.00 0.00 39 1016.7
20260504000802 69 244 0.0 1.0 0.00 0.00 0.00 39 1016.7
20260504000703 69 244 0.0 1.0 0.00 0.00 0.00 38 1016.8
20260504000603 69 244 0.0 1.0 0.00 0.00 0.00 39 1016.7
20260504000505 69 244 0.0 1.0 0.00 0.00 0.00 41 1016.7
20260504000403 69 244 0.0 1.0 0.00 0.00 0.00 40 1016.7
20260504000204 70 282 0.0 2.0 0.00 0.00 0.00 39 1016.7
20260503235901 70 282 0.0 2.0 0.00 0.00 0.00 39 1016.6
20260503235802 70 282 0.0 2.0 0.00 0.00 0.00 38 1016.6
20260503235701 70 229 0.0 3.0 0.00 0.00 0.00 37 1016.6
20260503235601 70 333 0.0 3.0 0.00 0.00 0.00 36 1016.6
20260503235504 70 333 0.0 3.0 0.00 0.00 0.00 36 1016.6
20260503235401 70 335 0.0 3.0 0.00 0.00 0.00 37 1016.6
20260503235302 70 335 0.0 3.0 0.00 0.00 0.00 37 1016.6
20260503235202 70 333 0.0 3.0 0.00 0.00 0.00 37 1016.6
20260503235101 70 286 0.0 3.0 0.00 0.00 0.00 36 1016.6
20260503235005 70 286 0.0 3.0 0.00 0.00 0.00 36 1016.6
20260503234901 70 309 0.0 3.0 0.00 0.00 0.00 37 1016.6
20260503234802 71 349 2.0 3.0 0.00 0.00 0.00 37 1016.6
20260503234702 71 321 0.0 3.0 0.00 0.00 0.00 36 1016.6
20260503234601 71 264 0.0 3.0 0.00 0.00 0.00 36 1016.5
20260503234505 71 316 2.0 3.0 0.00 0.00 0.00 37 1016.6
20260503234400 71 323 2.0 3.0 0.00 0.00 0.00 37 1016.5
20260503234301 71 316 2.0 3.0 0.00 0.00 0.00 35 1016.6
20260503234201 71 316 0.0 3.0 0.00 0.00 0.00 36 1016.6
20260503234101 71 340 0.0 3.0 0.00 0.00 0.00 36 1016.6
20260503233901 71 340 0.0 3.0 0.00 0.00 0.00 35 1016.5
20260503233802 71 340 0.0 3.0 0.00 0.00 0.00 34 1016.6
20260503233504 71 304 0.0 4.0 0.00 0.00 0.00 35 1016.5
20260503233401 71 295 2.0 4.0 0.00 0.00 0.00 35 1016.5
20260503233006 72 13 2.0 4.0 0.00 0.00 0.00 34 1016.5
20260503232901 72 326 1.0 5.0 0.00 0.00 0.00 34 1016.5
20260503232801 72 295 2.0 5.0 0.00 0.00 0.00 34 1016.5
20260503232701 72 304 2.0 5.0 0.00 0.00 0.00 33 1016.5
20260503232602 72 345 2.0 5.0 0.00 0.00 0.00 34 1016.5
20260503232400 72 302 2.0 5.0 0.00 0.00 0.00 35 1016.5
20260503232301 72 321 1.0 5.0 0.00 0.00 0.00 34 1016.5
20260503232101 72 360 0.0 5.0 0.00 0.00 0.00 33 1016.5
20260503232005 72 358 2.0 3.0 0.00 0.00 0.00 33 1016.5
20260503231901 72 358 3.0 3.0 0.00 0.00 0.00 33 1016.5
20260503231804 72 23 3.0 3.0 0.00 0.00 0.00 34 1016.5
20260503231701 72 151 0.0 3.0 0.00 0.00 0.00 34 1016.6
20260503231505 72 305 0.0 3.0 0.00 0.00 0.00 33 1016.5
20260503231402 72 319 0.0 3.0 0.00 0.00 0.00 33 1016.6
20260503231301 72 317 2.0 4.0 0.00 0.00 0.00 33 1016.5
20260503231101 72 319 0.0 4.0 0.00 0.00 0.00 32 1016.6
20260503230901 72 323 0.0 5.0 0.00 0.00 0.00 33 1016.6
20260503230801 72 310 3.0 5.0 0.00 0.00 0.00 34 1016.6
20260503230701 72 303 1.0 5.0 0.00 0.00 0.00 32 1016.7
20260503230600 72 302 2.0 5.0 0.00 0.00 0.00 33 1016.7
20260503230505 73 284 2.0 5.0 0.00 0.00 0.00 32 1016.7
20260503230401 73 309 2.0 5.0 0.00 0.00 0.00 33 1016.7
20260503230301 73 326 2.0 5.0 0.00 0.00 0.00 33 1016.7
20260503230201 73 328 4.0 5.0 0.00 0.00 0.00 32 1016.7
20260503230007 73 20 3.0 5.0 0.00 0.00 0.00 32 1016.5
20260503225901 73 353 2.0 5.0 0.00 0.00 0.00 33 1016.6
20260503225802 73 360 3.0 5.0 0.00 0.00 0.00 33 1016.6
20260503225701 73 342 2.0 7.0 0.00 0.00 0.00 34 1016.6
20260503225601 73 17 4.0 7.0 0.00 0.00 0.00 34 1016.6
20260503225504 73 360 3.0 7.0 0.00 0.00 0.00 33 1016.7
20260503225402 73 20 3.0 7.0 0.00 0.00 0.00 33 1016.7
20260503225301 73 283 0.0 7.0 0.00 0.00 0.00 33 1016.7
20260503225201 73 310 3.0 7.0 0.00 0.00 0.00 33 1016.7
20260503225102 73 307 3.0 7.0 0.00 0.00 0.00 34 1016.7
20260503225005 73 309 1.0 7.0 0.00 0.00 0.00 32 1016.7
20260503224901 73 317 2.0 7.0 0.00 0.00 0.00 32 1016.7
20260503224802 73 5 5.0 7.0 0.00 0.00 0.00 32 1016.7
20260503224701 73 345 4.0 4.0 0.00 0.00 0.00 34 1016.7
20260503224602 73 360 0.0 4.0 0.00 0.00 0.00 33 1016.7
20260503224505 73 18 4.0 4.0 0.00 0.00 0.00 32 1016.7
20260503224401 73 303 0.0 5.0 0.00 0.00 0.00 32 1016.7
20260503224301 73 316 3.0 5.0 0.00 0.00 0.00 32 1016.8
20260503224201 73 323 3.0 5.0 0.00 0.00 0.00 32 1016.6
20260503224102 73 323 2.0 5.0 0.00 0.00 0.00 31 1016.6
20260503224006 73 314 0.0 5.0 0.00 0.00 0.00 31 1016.6
20260503223901 73 326 3.0 5.0 0.00 0.00 0.00 31 1016.7
20260503223802 73 330 4.0 5.0 0.00 0.00 0.00 32 1016.7
20260503223701 73 309 2.0 5.0 0.00 0.00 0.00 31 1016.7
20260503223601 73 312 2.0 5.0 0.00 0.00 0.00 32 1016.7
20260503223505 73 309 3.0 5.0 0.00 0.00 0.00 32 1016.7
20260503223401 74 328 4.0 5.0 0.00 0.00 0.00 31 1016.8
20260503223301 74 333 1.0 5.0 0.00 0.00 0.00 32 1016.7
20260503223006 73 274 3.0 7.0 0.00 0.00 0.00 32 1016.8
20260503222800 73 329 2.0 7.0 0.00 0.00 0.00 32 1016.7
20260503222702 73 349 3.0 7.0 0.00 0.00 0.00 32 1016.7
20260503222505 73 337 3.0 7.0 0.00 0.00 0.00 31 1016.7
20260503222401 73 296 3.0 7.0 0.00 0.00 0.00 31 1016.7
20260503222301 74 345 2.0 7.0 0.00 0.00 0.00 30 1016.7
20260503222200 74 324 2.0 7.0 0.00 0.00 0.00 32 1016.6
20260503222101 74 324 4.0 7.0 0.00 0.00 0.00 31 1016.6
20260503222006 74 356 3.0 7.0 0.00 0.00 0.00 31 1016.6
20260503221901 74 293 0.0 7.0 0.00 0.00 0.00 31 1016.6
20260503221801 74 293 3.0 7.0 0.00 0.00 0.00 32 1016.7
20260503221702 74 304 1.0 7.0 0.00 0.00 0.00 32 1016.6
20260503221602 74 310 3.0 7.0 0.00 0.00 0.00 32 1016.6
20260503221401 74 342 7.0 7.0 0.00 0.00 0.00 32 1016.7
20260503221301 74 358 3.0 7.0 0.00 0.00 0.00 32 1016.7
20260503221201 74 305 3.0 7.0 0.00 0.00 0.00 32 1016.7
20260503221102 74 307 2.0 7.0 0.00 0.00 0.00 32 1016.6
20260503221005 74 302 3.0 7.0 0.00 0.00 0.00 32 1016.6
20260503220901 74 297 5.0 7.0 0.00 0.00 0.00 32 1016.7
20260503220801 74 294 4.0 7.0 0.00 0.00 0.00 32 1016.6
20260503220701 74 271 6.0 7.0 0.00 0.00 0.00 32 1016.6
20260503220601 74 314 3.0 6.0 0.00 0.00 0.00 31 1016.7
20260503220505 74 342 3.0 6.0 0.00 0.00 0.00 31 1016.7
20260503220401 74 315 2.0 6.0 0.00 0.00 0.00 32 1016.6
20260503220301 74 221 0.0 6.0 0.00 0.00 0.00 33 1016.8
20260503220007 74 309 3.0 7.0 0.00 0.00 0.00 32 1016.8
20260503215802 74 300 4.0 7.0 0.00 0.00 0.00 32 1016.7
20260503215702 74 287 4.0 7.0 0.00 0.00 0.00 32 1016.8
20260503215603 74 285 5.0 7.0 0.00 0.00 0.00 31 1016.8
20260503215402 74 275 5.0 7.0 0.00 0.00 0.00 31 1016.8
20260503215304 74 255 6.0 6.0 0.00 0.00 0.00 33 1016.8
20260503215203 74 263 3.0 6.0 0.00 0.00 0.00 33 1016.8
20260503215104 74 281 3.0 6.0 0.00 0.00 0.00 33 1016.8
20260503215006 74 302 4.0 6.0 0.00 0.00 0.00 34 1016.9
20260503214902 74 267 4.0 6.0 0.00 0.00 0.00 35 1016.8
20260503214803 74 312 2.0 6.0 0.00 0.00 0.00 34 1016.8
20260503214701 74 287 4.0 6.0 0.00 0.00 0.00 33 1016.9
20260503214602 74 295 4.0 6.0 0.00 0.00 0.00 34 1016.8
20260503214506 74 267 3.0 6.0 0.00 0.00 0.00 33 1016.8
20260503214402 74 272 4.0 6.0 0.00 0.00 0.00 34 1016.8
20260503214303 74 284 4.0 6.0 0.00 0.00 0.00 32 1016.9
20260503214202 74 312 3.0 6.0 0.00 0.00 0.00 33 1016.9
20260503214102 74 338 3.0 6.0 0.00 0.00 0.00 33 1016.9
20260503214006 74 315 3.0 6.0 0.00 0.00 0.00 34 1016.9
20260503213903 74 265 4.0 6.0 0.00 0.00 0.00 33 1016.9
20260503213505 75 286 4.0 6.0 0.00 0.00 0.00 33 1016.9
20260503213402 74 295 0.0 6.0 0.00 0.00 0.00 32 1016.9
20260503213302 75 305 4.0 6.0 0.00 0.00 0.00 32 1016.9
20260503213202 75 297 3.0 6.0 0.00 0.00 0.00 33 1016.8
20260503213007 74 301 2.0 6.0 0.00 0.00 0.00 33 1016.9
20260503212902 74 288 3.0 6.0 0.00 0.00 0.00 34 1016.9
20260503212802 74 338 3.0 6.0 0.00 0.00 0.00 34 1016.9
20260503212703 74 290 3.0 6.0 0.00 0.00 0.00 34 1016.9
20260503212602 74 292 3.0 6.0 0.00 0.00 0.00 33 1016.9
20260503212506 74 301 4.0 6.0 0.00 0.00 0.00 34 1016.9
20260503212402 74 284 4.0 6.0 0.00 0.00 0.00 35 1016.9
20260503212102 74 349 5.0 7.0 0.00 0.00 0.00 33 1016.9
20260503212006 74 310 3.0 7.0 0.00 0.00 0.00 33 1016.9
20260503211903 74 338 2.0 7.0 0.00 0.00 0.00 34 1017.0
20260503211803 74 319 2.0 7.0 0.00 0.00 0.00 34 1016.9
20260503211703 74 283 3.0 7.0 0.00 0.00 0.00 34 1017.0
20260503211603 74 231 0.0 7.0 0.00 0.00 0.00 34 1017.0
20260503211506 74 269 5.0 7.0 0.00 0.00 0.00 34 1016.9
20260503211402 74 296 3.0 7.0 0.00 0.00 0.00 33 1017.0
20260503211302 74 303 2.0 7.0 0.00 0.00 0.00 34 1016.9
20260503211202 74 267 6.0 7.0 0.00 0.00 0.00 34 1017.0
20260503211005 74 282 4.0 7.0 0.00 0.00 0.00 34 1017.0
20260503210802 74 276 2.0 7.0 0.00 0.00 0.00 32 1017.0
20260503210702 74 266 5.0 7.0 0.00 0.00 0.00 33 1017.0
20260503210602 74 308 0.0 7.0 0.00 0.00 0.00 32 1017.0
20260503210505 74 5 3.0 7.0 0.00 0.00 0.00 33 1017.0
20260503210401 74 284 4.0 7.0 0.00 0.00 0.00 34 1017.0
20260503210202 75 293 2.0 7.0 0.00 0.00 0.00 34 1017.1
20260503210104 75 333 5.0 7.0 0.00 0.00 0.00 34 1017.1
20260503210007 74 277 5.0 7.0 0.00 0.00 0.00 34 1017.2
20260503205801 74 359 1.0 6.0 0.00 0.00 0.00 33 1017.1
20260503205701 74 283 6.0 6.0 0.00 0.00 0.00 34 1017.1
20260503205601 74 279 3.0 6.0 0.00 0.00 0.00 32 1017.0
20260503205505 74 271 3.0 6.0 0.00 0.00 0.00 31 1017.0
20260503205401 74 331 2.0 6.0 0.00 0.00 0.00 32 1017.1
20260503205303 74 336 3.0 6.0 0.00 0.00 0.00 33 1017.2
20260503205201 75 297 3.0 6.0 0.00 0.00 0.00 32 1017.3
20260503205101 75 295 4.0 6.0 0.00 0.00 0.00 32 1017.2
20260503204901 75 330 4.0 6.0 0.00 0.00 0.00 30 1017.3
20260503204800 75 1 3.0 5.0 0.00 0.00 0.00 30 1017.3
20260503204701 75 324 3.0 5.0 0.00 0.00 0.00 32 1017.3
20260503204602 75 298 4.0 5.0 0.00 0.00 0.00 31 1017.3
20260503204505 75 315 1.0 5.0 0.00 0.00 0.00 32 1017.3
20260503204402 75 265 1.0 5.0 0.00 0.00 0.00 30 1017.3
20260503204302 75 305 2.0 5.0 0.00 0.00 0.00 30 1017.3
20260503204201 75 6 4.0 5.0 0.00 0.00 0.00 33 1017.3
20260503204101 75 314 4.0 5.0 0.00 0.00 0.00 32 1017.2
20260503204006 75 319 1.0 6.0 0.00 0.00 0.00 33 1017.2
20260503203901 75 230 1.0 6.0 0.00 0.00 0.00 32 1017.3
20260503203800 75 290 3.0 6.0 0.00 0.00 0.00 33 1017.4
20260503203601 75 291 0.0 6.0 0.00 0.00 0.00 32 1017.6
20260503203504 75 278 3.0 7.0 0.00 0.00 0.00 32 1017.6
20260503203401 75 281 3.0 7.0 0.00 0.00 0.00 33 1017.7
20260503203301 75 291 5.0 7.0 0.00 0.00 0.00 33 1017.7
20260503203201 74 307 3.0 7.0 0.00 0.00 0.00 32 1017.7
20260503203006 75 289 3.0 7.0 0.00 0.00 0.00 32 1017.7
20260503202902 75 296 3.0 7.0 0.00 0.00 0.00 32 1017.7
20260503202701 75 294 4.0 7.0 0.00 0.00 0.00 33 1017.7
20260503202601 75 288 3.0 7.0 0.00 0.00 0.00 32 1017.7
20260503202504 75 300 1.0 6.0 0.00 0.00 0.00 33 1017.8
20260503202401 75 294 3.0 6.0 0.00 0.00 0.00 33 1017.7
20260503202300 75 295 3.0 6.0 0.00 0.00 0.00 33 1017.7
20260503202200 75 295 1.0 6.0 0.00 0.00 0.00 33 1017.6
20260503202101 75 317 2.0 6.0 0.00 0.00 0.00 33 1017.7
20260503202005 75 293 3.0 8.0 0.00 0.00 0.00 33 1017.7
20260503201801 75 349 2.0 8.0 0.00 0.00 0.00 31 1017.8
20260503201701 75 336 2.0 8.0 0.00 0.00 0.00 33 1017.8
20260503201603 75 302 2.0 8.0 0.00 0.00 0.00 31 1017.9
20260503201402 75 270 4.0 8.0 0.00 0.00 0.00 33 1017.8
20260503201301 75 281 3.0 8.0 0.00 0.00 0.00 33 1017.8
20260503201201 76 269 5.0 8.0 0.00 0.00 0.00 34 1017.8
20260503201101 75 264 7.0 7.0 0.00 0.00 0.00 33 1017.8
20260503201005 75 301 3.0 6.0 0.00 0.00 0.00 33 1017.8
20260503200902 75 242 3.0 6.0 0.00 0.00 0.00 34 1017.9
20260503200800 75 278 2.0 6.0 0.00 0.00 0.00 34 1017.9
20260503200702 75 294 5.0 7.0 0.00 0.00 0.00 34 1017.8
20260503200601 75 312 3.0 7.0 0.00 0.00 0.00 33 1017.9
20260503200505 74 315 3.0 7.0 0.00 0.00 0.00 33 1017.9
20260503200401 74 225 2.0 7.0 0.00 0.00 0.00 33 1017.9
20260503200301 74 304 2.0 7.0 0.00 0.00 0.00 34 1017.9
20260503200201 74 290 3.0 7.0 0.00 0.00 0.00 33 1018.0
20260503200101 74 279 5.0 7.0 0.00 0.00 0.00 34 1018.0
20260503200006 74 293 3.0 7.0 0.00 0.00 0.00 33 1018.0
20260503195801 74 250 4.0 7.0 0.00 0.00 0.00 33 1018.0
20260503195702 74 285 5.0 7.0 0.00 0.00 0.00 33 1018.1
20260503195602 74 288 3.0 7.0 0.00 0.00 0.00 32 1018.0
20260503195505 74 279 3.0 7.0 0.00 0.00 0.00 32 1018.0
20260503195401 74 252 6.0 7.0 0.00 0.00 0.00 32 1018.1
20260503195301 74 274 3.0 7.0 0.00 0.00 0.00 33 1018.1
20260503195101 74 289 4.0 8.0 0.00 0.00 0.00 31 1018.2
20260503195006 74 264 5.0 8.0 0.00 0.00 0.00 32 1018.2
20260503194901 74 327 4.0 8.0 0.00 0.00 0.00 34 1018.2
20260503194801 75 338 5.0 8.0 0.00 0.00 0.00 32 1018.3
20260503194700 75 303 5.0 8.0 0.00 0.00 0.00 33 1018.1
20260503194601 75 280 5.0 8.0 0.00 0.00 0.00 33 1018.2
20260503194505 74 293 3.0 8.0 0.00 0.00 0.00 32 1018.3
20260503194403 74 235 2.0 8.0 0.00 0.00 0.00 33 1018.2
20260503194302 74 289 3.0 8.0 0.00 0.00 0.00 30 1018.3
20260503194201 75 261 5.0 8.0 0.00 0.00 0.00 32 1018.3
20260503194101 74 290 4.0 7.0 0.00 0.00 0.00 34 1018.4
20260503194005 74 286 1.0 7.0 0.00 0.00 0.00 31 1018.4
20260503193901 74 300 4.0 7.0 0.00 0.00 0.00 32 1018.3
20260503193801 74 280 4.0 7.0 0.00 0.00 0.00 31 1018.4
20260503193701 74 286 3.0 7.0 0.00 0.00 0.00 30 1018.4
20260503193400 74 282 3.0 7.0 0.00 0.00 0.00 31 1018.4
20260503193302 74 288 4.0 7.0 0.00 0.00 0.00 31 1018.4
20260503193201 74 287 4.0 7.0 0.00 0.00 0.00 31 1018.5
20260503192901 74 261 3.0 7.0 0.00 0.00 0.00 30 1018.4
20260503192801 74 301 5.0 7.0 0.00 0.00 0.00 30 1018.4
20260503192701 74 275 6.0 9.0 0.00 0.00 0.00 31 1018.4
20260503192600 74 292 5.0 9.0 0.00 0.00 0.00 31 1018.4
20260503192505 74 323 3.0 9.0 0.00 0.00 0.00 30 1018.4
20260503192401 74 333 3.0 9.0 0.00 0.00 0.00 32 1018.4
20260503192302 74 265 5.0 9.0 0.00 0.00 0.00 32 1018.5
20260503192101 74 293 3.0 9.0 0.00 0.00 0.00 34 1018.6
20260503192005 74 277 3.0 9.0 0.00 0.00 0.00 36 1018.6
20260503191901 73 262 2.0 9.0 0.00 0.00 0.00 34 1018.4
20260503191801 73 258 8.0 9.0 0.00 0.00 0.00 36 1018.5
20260503191700 73 296 4.0 7.0 0.00 0.00 0.00 33 1018.5
20260503191601 73 297 5.0 7.0 0.00 0.00 0.00 34 1018.7
20260503191505 74 327 3.0 7.0 0.00 0.00 0.00 33 1018.7
20260503191403 74 255 5.0 7.0 0.00 0.00 0.00 33 1018.7
20260503191301 74 280 4.0 7.0 0.00 0.00 0.00 34 1018.7
20260503191201 74 311 4.0 7.0 0.00 0.00 0.00 33 1018.7
20260503191101 74 330 2.0 7.0 0.00 0.00 0.00 35 1018.7
20260503191005 74 273 4.0 7.0 0.00 0.00 0.00 33 1018.7
20260503190901 74 272 3.0 9.0 0.00 0.00 0.00 34 1018.7
20260503190801 74 314 3.0 9.0 0.00 0.00 0.00 33 1018.7
20260503190701 74 271 6.0 9.0 0.00 0.00 0.00 35 1018.7
20260503190302 73 333 3.0 9.0 0.00 0.00 0.00 33 1018.7
20260503190201 73 323 2.0 9.0 0.00 0.00 0.00 33 1018.8
20260503190006 73 267 7.0 8.0 0.00 0.00 0.00 35 1018.8
20260503185802 73 256 3.0 7.0 0.00 0.00 0.00 34 1018.7
20260503185702 73 307 3.0 7.0 0.00 0.00 0.00 33 1018.7
20260503185601 73 302 2.0 7.0 0.00 0.00 0.00 35 1018.7
20260503185505 73 314 2.0 7.0 0.00 0.00 0.00 35 1018.7
20260503185400 73 315 0.0 7.0 0.00 0.00 0.00 33 1018.7
20260503185301 73 331 3.0 7.0 0.00 0.00 0.00 33 1018.7
20260503185200 74 291 3.0 7.0 0.00 0.00 0.00 33 1018.8
20260503185101 74 319 2.0 7.0 0.00 0.00 0.00 35 1018.7
20260503184901 74 301 3.0 7.0 0.00 0.00 0.00 33 1018.9
20260503184802 75 288 4.0 7.0 0.00 0.00 0.00 32 1018.8
20260503184701 76 244 2.0 5.0 0.00 0.00 0.00 32 1018.9
20260503184601 76 189 0.0 5.0 0.00 0.00 0.00 35 1018.9
20260503184505 75 284 2.0 5.0 0.00 0.00 0.00 33 1018.9
20260503184402 75 347 2.0 5.0 0.00 0.00 0.00 33 1018.9
20260503184301 75 278 4.0 5.0 0.00 0.00 0.00 33 1018.8
20260503184202 75 306 2.0 5.0 0.00 0.00 0.00 34 1018.9
20260503184101 75 331 2.0 5.0 0.00 0.00 0.00 33 1018.9
20260503184005 76 312 2.0 5.0 0.00 0.00 0.00 34 1018.9
20260503183902 76 312 2.0 5.0 0.00 0.00 0.00 32 1018.9
20260503183801 76 319 3.0 5.0 0.00 0.00 0.00 32 1018.9
20260503183702 76 307 3.0 5.0 0.00 0.00 0.00 32 1018.9
20260503183505 76 322 2.0 6.0 0.00 0.00 0.00 36 1018.9
20260503183401 75 319 1.0 6.0 0.00 0.00 0.00 34 1018.9
20260503183302 76 324 3.0 6.0 0.00 0.00 0.00 32 1018.9
20260503183201 76 299 1.0 6.0 0.00 0.00 0.00 33 1018.9
20260503183007 75 350 3.0 6.0 0.00 0.00 0.00 34 1018.9
20260503182901 74 301 3.0 6.0 0.00 0.00 0.00 34 1018.9
20260503182801 75 313 0.0 6.0 0.00 0.00 0.00 35 1019.0
20260503182701 75 284 2.0 5.0 0.00 0.00 0.00 34 1019.0
20260503182601 75 5 5.0 5.0 0.00 0.00 0.00 36 1019.0
20260503182403 75 245 3.0 7.0 0.00 0.00 0.00 33 1019.0
20260503182300 75 313 0.0 7.0 0.00 0.00 0.00 34 1019.1
20260503182202 74 258 3.0 7.0 0.00 0.00 0.00 35 1019.1
20260503182103 74 301 1.0 7.0 0.00 0.00 0.00 35 1019.0
20260503181901 74 340 3.0 7.0 0.00 0.00 0.00 33 1019.1
20260503181803 74 288 4.0 7.0 0.00 0.00 0.00 35 1019.0
20260503181701 74 299 3.0 7.0 0.00 0.00 0.00 34 1019.1
20260503181601 74 253 0.0 8.0 0.00 0.00 0.00 33 1019.1
20260503181505 75 283 5.0 8.0 0.00 0.00 0.00 32 1019.1
20260503181401 74 155 0.0 8.0 0.00 0.00 0.00 32 1019.1
20260503181300 74 360 2.0 8.0 0.00 0.00 0.00 35 1019.1
20260503181202 74 276 1.0 8.0 0.00 0.00 0.00 35 1019.1
20260503181005 74 304 3.0 8.0 0.00 0.00 0.00 33 1019.1
20260503180601 74 345 3.0 6.0 0.00 0.00 0.00 34 1019.1
20260503180504 74 299 4.0 6.0 0.00 0.00 0.00 35 1019.1
20260503180401 74 293 4.0 6.0 0.00 0.00 0.00 34 1019.2
20260503180301 74 352 3.0 6.0 0.00 0.00 0.00 35 1019.2
20260503180201 74 316 3.0 6.0 0.00 0.00 0.00 34 1019.3
20260503175901 73 246 4.0 6.0 0.00 0.00 0.00 35 1019.2
20260503175801 73 286 3.0 6.0 0.00 0.00 0.00 34 1019.2
20260503175701 73 262 5.0 6.0 0.00 0.00 0.00 35 1019.2
20260503175601 73 292 5.0 6.0 0.00 0.00 0.00 34 1019.2
20260503175505 74 284 3.0 6.0 0.00 0.00 0.00 34 1019.2
20260503175402 74 319 4.0 6.0 0.00 0.00 0.00 31 1019.3
20260503175301 75 134 2.0 6.0 0.00 0.00 0.00 31 1019.3
20260503175201 75 99 1.0 7.0 0.00 0.00 0.00 33 1019.3
20260503175005 74 31 1.0 7.0 0.00 0.00 0.00 33 1019.4
20260503174901 73 12 1.0 7.0 0.00 0.00 0.00 32 1019.4
20260503174600 72 321 3.0 7.0 0.00 0.00 0.00 34 1019.4
20260503174505 72 340 3.0 7.0 0.00 0.00 0.00 32 1019.4
20260503174401 72 319 3.0 7.0 0.00 0.00 0.00 32 1019.5
20260503174302 72 350 3.0 7.0 0.00 0.00 0.00 35 1019.4
20260503174202 72 280 5.0 8.0 0.00 0.00 0.00 34 1019.5
20260503174007 72 309 5.0 8.0 0.00 0.00 0.00 34 1019.4
20260503173902 72 305 6.0 8.0 0.00 0.00 0.00 35 1019.5
20260503173802 72 293 4.0 8.0 0.00 0.00 0.00 36 1019.5
20260503173602 72 307 5.0 8.0 0.00 0.00 0.00 36 1019.4
20260503173504 71 285 3.0 8.0 0.00 0.00 0.00 35 1019.4
20260503173401 71 292 5.0 8.0 0.00 0.00 0.00 34 1019.4
20260503173302 71 305 4.0 8.0 0.00 0.00 0.00 33 1019.5
20260503173201 71 257 4.0 8.0 0.00 0.00 0.00 34 1019.5
20260503173101 72 293 6.0 8.0 0.00 0.00 0.00 33 1019.6
20260503173007 72 275 6.0 8.0 0.00 0.00 0.00 35 1019.6
20260503172902 72 287 4.0 8.0 0.00 0.00 0.00 37 1019.6
20260503172801 72 307 3.0 10.0 0.00 0.00 0.00 34 1019.7
20260503172700 72 304 5.0 10.0 0.00 0.00 0.00 35 1019.6
20260503172601 72 292 5.0 10.0 0.00 0.00 0.00 35 1019.7
20260503172505 72 307 4.0 10.0 0.00 0.00 0.00 37 1019.8
20260503172401 72 281 6.0 10.0 0.00 0.00 0.00 36 1019.7
20260503172302 71 328 3.0 10.0 0.00 0.00 0.00 34 1019.7
20260503172201 71 304 3.0 10.0 0.00 0.00 0.00 35 1019.7
20260503172101 72 300 5.0 10.0 0.00 0.00 0.00 36 1019.7
20260503172005 72 303 7.0 10.0 0.00 0.00 0.00 35 1019.7
20260503171901 71 274 5.0 7.0 0.00 0.00 0.00 36 1019.8
20260503171802 71 244 4.0 7.0 0.00 0.00 0.00 35 1019.8
20260503171701 71 303 2.0 7.0 0.00 0.00 0.00 35 1019.8
20260503171505 71 279 5.0 7.0 0.00 0.00 0.00 34 1019.9
20260503171401 71 329 5.0 7.0 0.00 0.00 0.00 35 1020.0
20260503171301 71 286 3.0 7.0 0.00 0.00 0.00 36 1019.9
20260503171101 72 329 3.0 6.0 0.00 0.00 0.00 36 1020.0
20260503170901 71 280 3.0 7.0 0.00 0.00 0.00 34 1020.1
20260503170802 71 328 2.0 7.0 0.00 0.00 0.00 35 1020.1
20260503170701 71 360 3.0 7.0 0.00 0.00 0.00 34 1020.1
20260503170601 71 338 0.0 7.0 0.00 0.00 0.00 36 1020.2
20260503170401 70 316 4.0 8.0 0.00 0.00 0.00 34 1020.3
20260503170302 71 276 5.0 8.0 0.00 0.00 0.00 36 1020.2
20260503170201 71 253 5.0 8.0 0.00 0.00 0.00 36 1020.3
20260503160201 70 260 1.0 6.0 0.00 0.00 0.00 36 1020.8
20260503151005 69 299 3.0 7.0 0.00 0.00 0.00 40 1021.0
20260503150901 69 279 6.0 6.0 0.00 0.00 0.00 40 1020.9
20260503150801 69 291 2.0 5.0 0.00 0.00 0.00 40 1021.0
20260503150701 68 202 2.0 5.0 0.00 0.00 0.00 42 1021.0
20260503150601 68 199 2.0 5.0 0.00 0.00 0.00 41 1021.0
20260503150505 68 45 3.0 6.0 0.00 0.00 0.00 41 1021.0
20260503150401 68 295 2.0 6.0 0.00 0.00 0.00 43 1021.0
20260503150301 68 300 5.0 6.0 0.00 0.00 0.00 42 1021.0
20260503150201 68 290 2.0 6.0 0.00 0.00 0.00 41 1020.9
20260503140201 63 307 3.0 5.0 0.00 0.02 0.00 52 1020.2
20260503131359 59 302 0.0 3.0 0.00 0.03 0.00 61 1020.2
20260503131300 59 326 1.0 3.0 0.00 0.03 0.00 63 1020.3
20260503131200 59 281 2.0 3.0 0.00 0.03 0.00 63 1020.3
20260503131100 59 286 0.0 4.0 0.00 0.03 0.00 64 1020.2
20260503131005 59 286 0.0 4.0 0.00 0.03 0.00 64 1020.2
20260503130902 58 176 2.0 4.0 0.00 0.03 0.00 64 1020.3
20260503130800 58 162 0.0 4.0 0.00 0.03 0.00 64 1020.3
20260503130700 58 184 2.0 4.0 0.00 0.03 0.00 65 1020.3
20260503130559 58 245 0.0 4.0 0.00 0.03 0.00 65 1020.3
20260503130504 58 243 2.0 4.0 0.00 0.03 0.00 64 1020.3
20260503130400 57 219 0.0 4.0 0.00 0.03 0.00 64 1020.2
20260503130259 57 297 0.0 4.0 0.00 0.03 0.00 65 1020.2
20260503130159 57 268 3.0 4.0 0.00 0.03 0.00 66 1020.2
20260503120200 49 194 0.0 2.0 0.00 0.08 0.00 85 1020.0
20260503110802 46 207 3.0 4.0 0.00 0.20 0.00 88 1019.1
20260503110702 46 194 2.0 4.0 0.00 0.20 0.00 88 1019.1
20260503110602 46 188 3.0 4.0 0.00 0.20 0.00 88 1019.1
20260503110504 46 187 4.0 4.0 0.00 0.20 0.00 88 1019.1
20260503110300 46 190 2.0 4.0 0.00 0.20 0.00 88 1019.1
20260503100200 46 181 3.0 4.0 0.00 0.39 0.00 87 1018.4
20260503090505 47 176 3.0 4.0 0.00 0.50 0.00 87 1018.3
20260503090401 47 183 2.0 4.0 0.00 0.50 0.00 87 1018.3
20260503090301 47 207 2.0 4.0 0.00 0.50 0.00 87 1018.3
20260503090200 47 203 2.0 4.0 0.00 0.50 0.00 87 1018.3
20260503081559 47 186 3.0 3.0 0.00 0.63 0.00 86 1018.2
20260503081504 47 198 2.0 3.0 0.00 0.63 0.00 86 1018.2
20260503081400 47 185 2.0 3.0 0.00 0.63 0.00 86 1018.1
20260503081259 47 166 1.0 3.0 0.00 0.63 0.00 86 1018.1
20260503081159 47 187 2.0 3.0 0.00 0.63 0.00 85 1018.1
20260503081100 47 150 0.0 3.0 0.00 0.63 0.00 85 1018.1
20260503081005 47 175 0.0 3.0 0.00 0.63 0.00 85 1018.1
20260503080800 47 154 0.0 3.0 0.00 0.63 0.00 85 1018.1
20260503080700 47 154 2.0 3.0 0.00 0.63 0.00 86 1018.1
20260503080559 47 164 3.0 3.0 0.00 0.63 0.00 86 1018.1
20260503080505 47 171 2.0 4.0 0.00 0.63 0.00 86 1018.1
20260503080359 47 201 1.0 4.0 0.00 0.63 0.00 86 1018.1
20260503080300 47 181 1.0 4.0 0.00 0.63 0.00 85 1018.0